Year,Month,Day,Hour,Minute,Value (Times are PST for temperature in C)
2012,03,17,00,04,5.80
2012,03,17,00,05,5.80
2012,03,17,00,07,5.80
2012,03,17,00,08,5.80
2012,03,17,00,09,5.80
2012,03,17,00,10,5.80
2012,03,17,00,11,5.80
2012,03,17,00,12,5.80
2012,03,17,00,13,5.80
2012,03,17,00,16,5.80
2012,03,17,00,17,5.80
2012,03,17,00,18,5.70
2012,03,17,00,19,5.70
2012,03,17,00,21,5.70
2012,03,17,00,22,5.70
2012,03,17,00,23,5.70
2012,03,17,00,25,5.70
2012,03,17,00,26,5.70
2012,03,17,00,27,5.70
2012,03,17,00,28,5.70
2012,03,17,00,29,5.70
2012,03,17,00,31,5.70
2012,03,17,00,32,5.80
2012,03,17,00,33,5.80
2012,03,17,00,35,5.80
2012,03,17,00,36,5.80
2012,03,17,00,37,5.80
2012,03,17,00,38,5.80
2012,03,17,00,40,5.70
2012,03,17,00,41,5.70
2012,03,17,00,42,5.70
2012,03,17,00,44,5.60
2012,03,17,00,45,5.60
2012,03,17,00,46,5.60
2012,03,17,00,47,5.50
2012,03,17,00,48,5.50
2012,03,17,00,50,5.40
2012,03,17,00,51,5.40
2012,03,17,00,52,5.40
2012,03,17,00,53,5.40
2012,03,17,00,54,5.40
2012,03,17,00,55,5.40
2012,03,17,00,56,5.40
2012,03,17,00,58,5.40
2012,03,17,00,59,5.40
2012,03,17,01,00,5.40
2012,03,17,01,01,5.40
2012,03,17,01,02,5.40
2012,03,17,01,03,5.40
2012,03,17,01,04,5.30
2012,03,17,01,05,5.30
2012,03,17,01,06,5.30
2012,03,17,01,08,5.30
2012,03,17,01,09,5.30
2012,03,17,01,10,5.30
2012,03,17,01,11,5.20
2012,03,17,01,13,5.20
2012,03,17,01,14,5.20
2012,03,17,01,15,5.20
2012,03,17,01,16,5.20
2012,03,17,01,17,5.20
2012,03,17,01,18,5.20
2012,03,17,01,20,5.20
2012,03,17,01,21,5.10
2012,03,17,01,22,5.10
2012,03,17,01,23,5.10
2012,03,17,01,24,5.10
2012,03,17,01,26,5.10
2012,03,17,01,27,5.00
2012,03,17,01,28,5.00
2012,03,17,01,29,5.00
2012,03,17,01,30,5.00
2012,03,17,01,32,5.00
2012,03,17,01,33,4.90
2012,03,17,01,34,4.90
2012,03,17,01,36,4.90
2012,03,17,01,37,4.90
2012,03,17,01,38,4.90
2012,03,17,01,39,4.90
2012,03,17,01,41,4.90
2012,03,17,01,42,4.90
2012,03,17,01,43,4.90
2012,03,17,01,44,4.90
2012,03,17,01,45,4.90
2012,03,17,01,46,4.90
2012,03,17,01,47,4.90
2012,03,17,01,48,4.90
2012,03,17,01,50,4.90
2012,03,17,01,51,4.90
2012,03,17,01,52,4.90
2012,03,17,01,53,4.90
2012,03,17,01,54,4.90
2012,03,17,01,56,4.90
2012,03,17,01,57,4.90
2012,03,17,01,58,4.90
2012,03,17,01,59,4.90
2012,03,17,02,00,4.90
2012,03,17,02,01,4.90
2012,03,17,02,02,4.90
2012,03,17,02,04,4.90
2012,03,17,02,05,4.90
2012,03,17,02,06,4.90
2012,03,17,02,07,4.90
2012,03,17,02,09,4.90
2012,03,17,02,10,4.90
2012,03,17,02,11,4.90
2012,03,17,02,12,4.90
2012,03,17,02,13,4.90
2012,03,17,02,15,4.90
2012,03,17,02,16,4.90
2012,03,17,02,17,4.90
2012,03,17,02,18,4.90
2012,03,17,02,20,4.90
2012,03,17,02,21,4.90
2012,03,17,02,22,4.90
2012,03,17,02,23,4.90
2012,03,17,02,25,4.90
2012,03,17,02,26,4.90
2012,03,17,02,27,4.90
2012,03,17,02,29,4.90
2012,03,17,02,30,4.90
2012,03,17,02,31,4.90
2012,03,17,02,32,4.90
2012,03,17,02,34,4.90
2012,03,17,02,35,4.90
2012,03,17,02,36,4.90
2012,03,17,02,37,4.90
2012,03,17,02,39,4.90
2012,03,17,02,40,5.00
2012,03,17,02,41,4.90
2012,03,17,02,43,4.90
2012,03,17,02,44,5.00
2012,03,17,02,45,5.00
2012,03,17,02,46,5.00
2012,03,17,02,48,5.00
2012,03,17,02,49,5.00
2012,03,17,02,50,5.00
2012,03,17,02,52,5.00
2012,03,17,02,53,5.10
2012,03,17,02,54,5.10
2012,03,17,02,55,5.10
2012,03,17,02,57,5.10
2012,03,17,02,58,5.10
2012,03,17,02,59,5.10
2012,03,17,03,01,5.10
2012,03,17,03,02,5.10
2012,03,17,03,03,5.10
2012,03,17,03,04,5.10
2012,03,17,03,05,5.10
2012,03,17,03,07,5.10
2012,03,17,03,08,5.10
2012,03,17,03,09,5.10
2012,03,17,03,10,5.10
2012,03,17,03,12,5.10
2012,03,17,03,13,5.10
2012,03,17,03,14,5.10
2012,03,17,03,16,5.10
2012,03,17,03,17,5.10
2012,03,17,03,18,5.10
2012,03,17,03,19,5.10
2012,03,17,03,20,5.10
2012,03,17,03,21,5.10
2012,03,17,03,23,5.10
2012,03,17,03,24,5.10
2012,03,17,03,25,5.10
2012,03,17,03,27,5.10
2012,03,17,03,28,5.10
2012,03,17,03,29,5.10
2012,03,17,03,30,5.10
2012,03,17,03,31,5.10
2012,03,17,03,33,5.10
2012,03,17,03,34,5.10
2012,03,17,03,35,5.10
2012,03,17,03,36,5.10
2012,03,17,03,37,5.10
2012,03,17,03,38,5.10
2012,03,17,03,39,5.10
2012,03,17,03,40,5.10
2012,03,17,03,41,5.10
2012,03,17,03,42,5.10
2012,03,17,03,43,5.10
2012,03,17,03,44,5.10
2012,03,17,03,45,5.10
2012,03,17,03,46,5.10
2012,03,17,03,47,5.10
2012,03,17,03,48,5.10
2012,03,17,03,50,5.00
2012,03,17,03,51,5.00
2012,03,17,03,52,5.00
2012,03,17,03,53,5.00
2012,03,17,03,54,5.00
2012,03,17,03,55,5.00
2012,03,17,03,56,4.90
2012,03,17,03,57,4.90
2012,03,17,03,58,4.90
2012,03,17,03,59,4.90
2012,03,17,04,00,4.90
2012,03,17,04,01,4.90
2012,03,17,04,02,4.90
2012,03,17,04,03,4.90
2012,03,17,04,05,4.90
2012,03,17,04,06,4.90
2012,03,17,04,07,4.90
2012,03,17,04,08,4.90
2012,03,17,04,10,4.90
2012,03,17,04,11,4.90
2012,03,17,04,12,4.90
2012,03,17,04,13,4.90
2012,03,17,04,15,4.90
2012,03,17,04,16,4.90
2012,03,17,04,17,4.90
2012,03,17,04,18,4.90
2012,03,17,04,20,4.90
2012,03,17,04,21,4.90
2012,03,17,04,22,4.90
2012,03,17,04,23,4.80
2012,03,17,04,24,4.80
2012,03,17,04,25,4.80
2012,03,17,04,26,4.80
2012,03,17,04,27,4.80
2012,03,17,04,28,4.80
2012,03,17,04,30,4.80
2012,03,17,04,31,4.80
2012,03,17,04,32,4.80
2012,03,17,04,33,4.80
2012,03,17,04,35,4.70
2012,03,17,04,36,4.70
2012,03,17,04,37,4.70
2012,03,17,04,39,4.60
2012,03,17,04,40,4.60
2012,03,17,04,41,4.50
2012,03,17,04,42,4.50
2012,03,17,04,43,4.40
2012,03,17,04,44,4.40
2012,03,17,04,45,4.40
2012,03,17,04,48,4.40
2012,03,17,04,49,4.40
2012,03,17,04,50,4.30
2012,03,17,04,51,4.30
2012,03,17,04,53,4.30
2012,03,17,04,54,4.30
2012,03,17,04,55,4.30
2012,03,17,04,56,4.30
2012,03,17,04,58,4.20
2012,03,17,04,59,4.20
2012,03,17,05,00,4.10
2012,03,17,05,02,4.10
2012,03,17,05,03,4.10
2012,03,17,05,04,4.00
2012,03,17,05,05,3.90
2012,03,17,05,07,3.90
2012,03,17,05,08,3.90
2012,03,17,05,09,3.80
2012,03,17,05,10,3.80
2012,03,17,05,11,3.80
2012,03,17,05,12,3.80
2012,03,17,05,13,3.80
2012,03,17,05,15,3.80
2012,03,17,05,16,3.80
2012,03,17,05,18,3.80
2012,03,17,05,19,3.70
2012,03,17,05,20,3.70
2012,03,17,05,21,3.70
2012,03,17,05,23,3.70
2012,03,17,05,24,3.70
2012,03,17,05,25,3.70
2012,03,17,05,26,3.70
2012,03,17,05,28,3.70
2012,03,17,05,29,3.70
2012,03,17,05,30,3.70
2012,03,17,05,31,3.70
2012,03,17,05,32,3.70
2012,03,17,05,33,3.70
2012,03,17,05,34,3.70
2012,03,17,05,35,3.70
2012,03,17,05,37,3.70
2012,03,17,05,38,3.70
2012,03,17,05,39,3.70
2012,03,17,05,40,3.70
2012,03,17,05,42,3.70
2012,03,17,05,43,3.70
2012,03,17,05,44,3.70
2012,03,17,05,45,3.70
2012,03,17,05,47,3.70
2012,03,17,05,48,3.70
2012,03,17,05,49,3.70
2012,03,17,05,50,3.70
2012,03,17,05,52,3.70
2012,03,17,05,53,3.70
2012,03,17,05,54,3.70
2012,03,17,05,55,3.70
2012,03,17,05,56,3.70
2012,03,17,05,58,3.70
2012,03,17,05,59,3.70
2012,03,17,06,00,3.60
2012,03,17,06,01,3.60
2012,03,17,06,03,3.60
2012,03,17,06,04,3.60
2012,03,17,06,05,3.60
2012,03,17,06,07,3.60
2012,03,17,06,08,3.60
2012,03,17,06,09,3.60
2012,03,17,06,10,3.60
2012,03,17,06,11,3.60
2012,03,17,06,13,3.60
2012,03,17,06,14,3.60
2012,03,17,06,15,3.60
2012,03,17,06,16,3.60
2012,03,17,06,18,3.60
2012,03,17,06,19,3.50
2012,03,17,06,20,3.50
2012,03,17,06,21,3.50
2012,03,17,06,23,3.50
2012,03,17,06,24,3.50
2012,03,17,06,25,3.50
2012,03,17,06,26,3.50
2012,03,17,06,27,3.50
2012,03,17,06,28,3.50
2012,03,17,06,29,3.40
2012,03,17,06,30,3.40
2012,03,17,06,31,3.40
2012,03,17,06,33,3.40
2012,03,17,06,34,3.40
2012,03,17,06,35,3.40
2012,03,17,06,36,3.40
2012,03,17,06,38,3.40
2012,03,17,06,39,3.40
2012,03,17,06,40,3.40
2012,03,17,06,41,3.40
2012,03,17,06,43,3.40
2012,03,17,06,44,3.40
2012,03,17,06,45,3.40
2012,03,17,06,47,3.40
2012,03,17,06,48,3.40
2012,03,17,06,49,3.40
2012,03,17,06,51,3.40
2012,03,17,06,52,3.40
2012,03,17,06,53,3.40
2012,03,17,06,54,3.40
2012,03,17,06,56,3.40
2012,03,17,06,57,3.40
2012,03,17,06,58,3.40
2012,03,17,06,59,3.40
2012,03,17,07,00,3.40
2012,03,17,07,01,3.40
2012,03,17,07,03,3.40
2012,03,17,07,04,3.40
2012,03,17,07,05,3.40
2012,03,17,07,07,3.40
2012,03,17,07,08,3.40
2012,03,17,07,09,3.40
2012,03,17,07,10,3.40
2012,03,17,07,11,3.40
2012,03,17,07,13,3.40
2012,03,17,07,14,3.40
2012,03,17,07,15,3.40
2012,03,17,07,16,3.40
2012,03,17,07,18,3.40
2012,03,17,07,19,3.40
2012,03,17,07,20,3.40
2012,03,17,07,21,3.40
2012,03,17,07,23,3.40
2012,03,17,07,24,3.40
2012,03,17,07,25,3.40
2012,03,17,07,26,3.40
2012,03,17,07,28,3.40
2012,03,17,07,29,3.40
2012,03,17,07,30,3.40
2012,03,17,07,32,3.40
2012,03,17,07,33,3.50
2012,03,17,07,34,3.50
2012,03,17,07,35,3.50
2012,03,17,07,36,3.50
2012,03,17,07,37,3.50
2012,03,17,07,39,3.60
2012,03,17,07,40,3.60
2012,03,17,07,41,3.60
2012,03,17,07,43,3.60
2012,03,17,07,44,3.60
2012,03,17,07,45,3.60
2012,03,17,07,46,3.60
2012,03,17,07,48,3.60
2012,03,17,07,49,3.60
2012,03,17,07,50,3.60
2012,03,17,07,51,3.70
2012,03,17,07,52,3.70
2012,03,17,07,53,3.70
2012,03,17,07,55,3.70
2012,03,17,07,56,3.70
2012,03,17,07,57,3.70
2012,03,17,07,59,3.70
2012,03,17,08,00,3.70
2012,03,17,08,01,3.80
2012,03,17,08,02,3.80
2012,03,17,08,04,3.80
2012,03,17,08,05,3.80
2012,03,17,08,06,3.80
2012,03,17,08,07,3.80
2012,03,17,08,08,3.80
2012,03,17,08,09,3.80
2012,03,17,08,11,3.80
2012,03,17,08,12,3.80
2012,03,17,08,13,3.80
2012,03,17,08,14,3.80
2012,03,17,08,16,3.80
2012,03,17,08,17,3.90
2012,03,17,08,18,3.90
2012,03,17,08,19,3.90
2012,03,17,08,20,3.90
2012,03,17,08,22,3.90
2012,03,17,08,23,3.90
2012,03,17,08,24,3.90
2012,03,17,08,26,3.90
2012,03,17,08,27,4.00
2012,03,17,08,28,4.00
2012,03,17,08,29,4.00
2012,03,17,08,30,4.00
2012,03,17,08,31,4.10
2012,03,17,08,32,4.10
2012,03,17,08,33,4.10
2012,03,17,08,34,4.10
2012,03,17,08,35,4.10
2012,03,17,08,36,4.10
2012,03,17,08,37,4.10
2012,03,17,08,38,4.20
2012,03,17,08,39,4.20
2012,03,17,08,40,4.20
2012,03,17,08,41,4.20
2012,03,17,08,42,4.20
2012,03,17,08,44,4.20
2012,03,17,08,45,4.30
2012,03,17,08,46,4.30
2012,03,17,08,47,4.30
2012,03,17,08,49,4.30
2012,03,17,08,50,4.30
2012,03,17,08,51,4.30
2012,03,17,08,52,4.40
2012,03,17,08,53,4.40
2012,03,17,08,54,4.40
2012,03,17,08,55,4.40
2012,03,17,08,56,4.40
2012,03,17,08,57,4.40
2012,03,17,08,58,4.40
2012,03,17,08,59,4.40
2012,03,17,09,00,4.40
2012,03,17,09,01,4.40
2012,03,17,09,02,4.40
2012,03,17,09,03,4.40
2012,03,17,09,04,4.40
2012,03,17,09,05,4.40
2012,03,17,09,06,4.40
2012,03,17,09,07,4.50
2012,03,17,09,08,4.50
2012,03,17,09,09,4.50
2012,03,17,09,10,4.50
2012,03,17,09,11,4.40
2012,03,17,09,12,4.40
2012,03,17,09,13,4.50
2012,03,17,09,14,4.50
2012,03,17,09,15,4.50
2012,03,17,09,16,4.50
2012,03,17,09,17,4.50
2012,03,17,09,18,4.60
2012,03,17,09,19,4.50
2012,03,17,09,21,4.50
2012,03,17,09,22,4.60
2012,03,17,09,23,4.60
2012,03,17,09,25,4.50
2012,03,17,09,26,4.60
2012,03,17,09,27,4.60
2012,03,17,09,28,4.60
2012,03,17,09,29,4.60
2012,03,17,09,31,4.60
2012,03,17,09,32,4.60
2012,03,17,09,33,4.50
2012,03,17,09,34,4.50
2012,03,17,09,36,4.50
2012,03,17,09,37,4.50
2012,03,17,09,38,4.60
2012,03,17,09,40,4.60
2012,03,17,09,41,4.60
2012,03,17,09,42,4.60
2012,03,17,09,43,4.70
2012,03,17,09,44,4.70
2012,03,17,09,47,4.70
2012,03,17,09,48,4.70
2012,03,17,09,49,4.80
2012,03,17,09,52,4.80
2012,03,17,09,53,4.80
2012,03,17,09,54,4.90
2012,03,17,09,57,5.00
2012,03,17,09,58,5.10
2012,03,17,09,59,5.10
2012,03,17,10,02,5.10
2012,03,17,10,03,5.20
2012,03,17,10,04,5.20
2012,03,17,10,06,5.20
2012,03,17,10,07,5.30
2012,03,17,10,08,5.30
2012,03,17,10,10,5.30
2012,03,17,10,11,5.40
2012,03,17,10,12,5.40
2012,03,17,10,13,5.40
2012,03,17,10,14,5.40
2012,03,17,10,16,5.40
2012,03,17,10,17,5.40
2012,03,17,10,18,5.40
2012,03,17,10,19,5.50
2012,03,17,10,21,5.60
2012,03,17,10,22,5.60
2012,03,17,10,23,5.60
2012,03,17,10,24,5.60
2012,03,17,10,26,5.60
2012,03,17,10,27,5.60
2012,03,17,10,28,5.60
2012,03,17,10,30,5.60
2012,03,17,10,31,5.70
2012,03,17,10,32,5.70
2012,03,17,10,33,5.70
2012,03,17,10,34,5.70
2012,03,17,10,35,5.70
2012,03,17,10,36,5.70
2012,03,17,10,37,5.70
2012,03,17,10,38,5.70
2012,03,17,10,39,5.70
2012,03,17,10,40,5.70
2012,03,17,10,41,5.70
2012,03,17,10,42,5.70
2012,03,17,10,43,5.70
2012,03,17,10,44,5.80
2012,03,17,10,45,5.80
2012,03,17,10,46,5.80
2012,03,17,10,47,5.80
2012,03,17,10,48,5.80
2012,03,17,10,49,5.90
2012,03,17,10,50,5.90
2012,03,17,10,51,5.90
2012,03,17,10,52,6.00
2012,03,17,10,53,6.00
2012,03,17,10,54,6.00
2012,03,17,10,55,6.00
2012,03,17,10,56,5.90
2012,03,17,10,57,5.90
2012,03,17,10,58,5.90
2012,03,17,10,59,6.00
2012,03,17,11,00,6.00
2012,03,17,11,01,6.00
2012,03,17,11,02,5.90
2012,03,17,11,03,5.90
2012,03,17,11,04,6.00
2012,03,17,11,05,5.90
2012,03,17,11,07,5.90
2012,03,17,11,08,5.90
2012,03,17,11,09,5.90
2012,03,17,11,10,5.90
2012,03,17,11,11,5.90
2012,03,17,11,12,5.90
2012,03,17,11,13,5.90
2012,03,17,11,14,5.80
2012,03,17,11,15,5.90
2012,03,17,11,16,5.90
2012,03,17,11,17,5.90
2012,03,17,11,18,5.90
2012,03,17,11,19,5.90
2012,03,17,11,20,5.90
2012,03,17,11,21,5.90
2012,03,17,11,22,5.90
2012,03,17,11,23,5.90
2012,03,17,11,24,5.90
2012,03,17,11,25,5.90
2012,03,17,11,26,5.90
2012,03,17,11,27,5.90
2012,03,17,11,28,6.00
2012,03,17,11,29,6.00
2012,03,17,11,31,6.00
2012,03,17,11,32,6.10
2012,03,17,11,33,6.10
2012,03,17,11,34,6.10
2012,03,17,11,36,6.20
2012,03,17,11,37,6.20
2012,03,17,11,40,6.20
2012,03,17,11,41,6.20
2012,03,17,11,42,6.30
2012,03,17,11,43,6.20
2012,03,17,11,44,6.20
2012,03,17,11,47,6.30
2012,03,17,11,48,6.30
2012,03,17,11,49,6.30
2012,03,17,11,50,6.40
2012,03,17,11,52,6.50
2012,03,17,11,53,6.60
2012,03,17,11,54,6.70
2012,03,17,11,55,6.70
2012,03,17,11,57,6.70
2012,03,17,11,58,6.70
2012,03,17,11,59,6.70
2012,03,17,12,02,6.70
2012,03,17,12,03,6.70
2012,03,17,12,04,6.70
2012,03,17,12,07,6.70
2012,03,17,12,08,6.80
2012,03,17,12,09,6.80
2012,03,17,12,10,6.90
2012,03,17,12,12,6.90
2012,03,17,12,13,6.90
2012,03,17,12,14,6.90
2012,03,17,12,15,6.90
2012,03,17,12,17,6.90
2012,03,17,12,18,6.90
2012,03,17,12,19,7.00
2012,03,17,12,20,7.10
2012,03,17,12,22,7.10
2012,03,17,12,23,7.10
2012,03,17,12,24,7.00
2012,03,17,12,27,7.00
2012,03,17,12,29,7.00
2012,03,17,12,30,7.00
2012,03,17,12,32,6.90
2012,03,17,12,33,7.00
2012,03,17,12,34,7.10
2012,03,17,12,35,7.10
2012,03,17,12,37,7.20
2012,03,17,12,38,7.20
2012,03,17,12,39,7.20
2012,03,17,12,40,7.20
2012,03,17,12,41,7.20
2012,03,17,12,42,7.20
2012,03,17,12,43,7.20
2012,03,17,12,44,7.20
2012,03,17,12,46,7.20
2012,03,17,12,47,7.20
2012,03,17,12,48,7.30
2012,03,17,12,49,7.30
2012,03,17,12,50,7.40
2012,03,17,12,52,7.40
2012,03,17,12,53,7.60
2012,03,17,12,54,7.60
2012,03,17,12,55,7.60
2012,03,17,12,57,7.60
2012,03,17,12,58,7.60
2012,03,17,12,59,7.60
2012,03,17,13,00,7.60
2012,03,17,13,02,7.70
2012,03,17,13,03,7.70
2012,03,17,13,04,7.70
2012,03,17,13,05,7.80
2012,03,17,13,06,7.80
2012,03,17,13,08,7.80
2012,03,17,13,09,7.80
2012,03,17,13,10,7.90
2012,03,17,13,12,7.90
2012,03,17,13,13,8.00
2012,03,17,13,14,8.00
2012,03,17,13,16,8.00
2012,03,17,13,17,8.00
2012,03,17,13,18,8.00
2012,03,17,13,19,8.00
2012,03,17,13,20,8.00
2012,03,17,13,21,8.00
2012,03,17,13,23,8.10
2012,03,17,13,24,8.20
2012,03,17,13,25,8.30
2012,03,17,13,26,8.40
2012,03,17,13,28,8.40
2012,03,17,13,29,8.30
2012,03,17,13,30,8.30
2012,03,17,13,31,8.20
2012,03,17,13,33,8.30
2012,03,17,13,34,8.30
2012,03,17,13,35,8.20
2012,03,17,13,37,8.30
2012,03,17,13,38,8.30
2012,03,17,13,39,8.30
2012,03,17,13,40,8.40
2012,03,17,13,41,8.50
2012,03,17,13,43,8.50
2012,03,17,13,44,8.50
2012,03,17,13,45,8.60
2012,03,17,13,46,8.60
2012,03,17,13,48,8.60
2012,03,17,13,49,8.50
2012,03,17,13,50,8.50
2012,03,17,13,51,8.60
2012,03,17,13,52,8.60
2012,03,17,13,54,8.60
2012,03,17,13,55,8.50
2012,03,17,13,56,8.40
2012,03,17,13,57,8.40
2012,03,17,13,58,8.50
2012,03,17,13,59,8.60
2012,03,17,14,00,8.70
2012,03,17,14,01,8.70
2012,03,17,14,02,8.70
2012,03,17,14,04,8.70
2012,03,17,14,05,8.70
2012,03,17,14,06,8.70
2012,03,17,14,07,8.70
2012,03,17,14,08,8.80
2012,03,17,14,10,8.90
2012,03,17,14,11,9.10
2012,03,17,14,12,9.10
2012,03,17,14,13,9.10
2012,03,17,14,15,9.00
2012,03,17,14,16,9.00
2012,03,17,14,17,9.00
2012,03,17,14,19,9.00
2012,03,17,14,20,9.00
2012,03,17,14,21,8.90
2012,03,17,14,22,8.90
2012,03,17,14,23,8.90
2012,03,17,14,24,8.90
2012,03,17,14,25,9.00
2012,03,17,14,26,8.90
2012,03,17,14,27,8.90
2012,03,17,14,29,8.90
2012,03,17,14,30,9.00
2012,03,17,14,31,9.00
2012,03,17,14,32,9.00
2012,03,17,14,34,9.00
2012,03,17,14,35,9.00
2012,03,17,14,36,9.10
2012,03,17,14,37,9.10
2012,03,17,14,39,9.00
2012,03,17,14,40,9.00
2012,03,17,14,41,9.00
2012,03,17,14,42,9.10
2012,03,17,14,43,9.10
2012,03,17,14,44,9.20
2012,03,17,14,45,9.20
2012,03,17,14,46,9.30
2012,03,17,14,47,9.30
2012,03,17,14,48,9.30
2012,03,17,14,50,9.20
2012,03,17,14,51,9.10
2012,03,17,14,52,9.10
2012,03,17,14,53,9.10
2012,03,17,14,54,9.10
2012,03,17,14,55,9.20
2012,03,17,14,56,9.20
2012,03,17,14,57,9.10
2012,03,17,14,58,9.20
2012,03,17,14,59,9.20
2012,03,17,15,00,9.30
2012,03,17,15,01,9.30
2012,03,17,15,02,9.20
2012,03,17,15,03,9.20
2012,03,17,15,04,9.30
2012,03,17,15,05,9.30
2012,03,17,15,06,9.30
2012,03,17,15,07,9.30
2012,03,17,15,08,9.30
2012,03,17,15,09,9.30
2012,03,17,15,10,9.20
2012,03,17,15,11,9.20
2012,03,17,15,13,9.30
2012,03,17,15,14,9.30
2012,03,17,15,15,9.30
2012,03,17,15,16,9.20
2012,03,17,15,17,9.30
2012,03,17,15,18,9.30
2012,03,17,15,19,9.30
2012,03,17,15,20,9.30
2012,03,17,15,21,9.30
2012,03,17,15,22,9.20
2012,03,17,15,24,9.20
2012,03,17,15,25,9.10
2012,03,17,15,26,9.20
2012,03,17,15,27,9.10
2012,03,17,15,28,9.10
2012,03,17,15,29,9.10
2012,03,17,15,30,9.20
2012,03,17,15,31,9.20
2012,03,17,15,32,9.30
2012,03,17,15,33,9.30
2012,03,17,15,34,9.30
2012,03,17,15,35,9.20
2012,03,17,15,36,9.30
2012,03,17,15,37,9.30
2012,03,17,15,39,9.40
2012,03,17,15,40,9.40
2012,03,17,15,41,9.40
2012,03,17,15,42,9.40
2012,03,17,15,44,9.40
2012,03,17,15,45,9.40
2012,03,17,15,46,9.30
2012,03,17,15,47,9.20
2012,03,17,15,48,9.20
2012,03,17,15,49,9.20
2012,03,17,15,50,9.20
2012,03,17,15,51,9.30
2012,03,17,15,52,9.40
2012,03,17,15,54,9.60
2012,03,17,15,55,9.60
2012,03,17,15,56,9.50
2012,03,17,15,58,9.50
2012,03,17,15,59,9.40
2012,03,17,16,00,9.40
2012,03,17,16,01,9.30
2012,03,17,16,03,9.30
2012,03,17,16,04,9.20
2012,03,17,16,05,9.30
2012,03,17,16,06,9.40
2012,03,17,16,08,9.40
2012,03,17,16,09,9.40
2012,03,17,16,10,9.50
2012,03,17,16,11,9.60
2012,03,17,16,12,9.50
2012,03,17,16,13,9.40
2012,03,17,16,14,9.40
2012,03,17,16,15,9.50
2012,03,17,16,16,9.60
2012,03,17,16,17,9.60
2012,03,17,16,18,9.60
2012,03,17,16,19,9.60
2012,03,17,16,20,9.60
2012,03,17,16,21,9.60
2012,03,17,16,23,9.70
2012,03,17,16,24,9.70
2012,03,17,16,25,9.70
2012,03,17,16,26,9.80
2012,03,17,16,27,9.80
2012,03,17,16,29,9.80
2012,03,17,16,31,9.80
2012,03,17,16,32,9.70
2012,03,17,16,35,9.60
2012,03,17,16,36,9.70
2012,03,17,16,37,9.70
2012,03,17,16,40,9.70
2012,03,17,16,41,9.60
2012,03,17,16,42,9.60
2012,03,17,16,44,9.40
2012,03,17,16,47,9.40
2012,03,17,16,48,9.40
2012,03,17,16,49,9.40
2012,03,17,16,51,9.40
2012,03,17,16,52,9.40
2012,03,17,16,53,9.40
2012,03,17,16,54,9.40
2012,03,17,16,55,9.40
2012,03,17,16,58,9.50
2012,03,17,16,59,9.60
2012,03,17,17,01,9.40
2012,03,17,17,03,9.30
2012,03,17,17,04,9.30
2012,03,17,17,06,9.30
2012,03,17,17,08,9.30
2012,03,17,17,09,9.20
2012,03,17,17,11,9.00
2012,03,17,17,13,9.00
2012,03,17,17,14,8.90
2012,03,17,17,16,8.80
2012,03,17,17,18,8.80
2012,03,17,17,19,8.80
2012,03,17,17,21,8.80
2012,03,17,17,23,8.80
2012,03,17,17,24,8.70
2012,03,17,17,26,8.70
2012,03,17,17,28,8.60
2012,03,17,17,29,8.60
2012,03,17,17,30,8.70
2012,03,17,17,31,8.70
2012,03,17,17,32,8.70
2012,03,17,17,33,8.70
2012,03,17,17,34,8.70
2012,03,17,17,35,8.70
2012,03,17,17,36,8.80
2012,03,17,17,37,8.70
2012,03,17,17,38,8.70
2012,03,17,17,39,8.70
2012,03,17,17,40,8.70
2012,03,17,17,41,8.70
2012,03,17,17,42,8.70
2012,03,17,17,43,8.60
2012,03,17,17,44,8.60
2012,03,17,17,45,8.70
2012,03,17,17,46,8.70
2012,03,17,17,47,8.70
2012,03,17,17,48,8.80
2012,03,17,17,49,8.80
2012,03,17,17,50,8.90
2012,03,17,17,52,8.80
2012,03,17,17,53,8.80
2012,03,17,17,54,8.80
2012,03,17,17,55,8.80
2012,03,17,17,56,8.80
2012,03,17,17,57,8.70
2012,03,17,17,58,8.70
2012,03,17,17,59,8.70
2012,03,17,18,00,8.70
2012,03,17,18,01,8.70
2012,03,17,18,02,8.60
2012,03,17,18,03,8.50
2012,03,17,18,04,8.50
2012,03,17,18,05,8.40
2012,03,17,18,07,8.40
2012,03,17,18,08,8.50
2012,03,17,18,09,8.50
2012,03,17,18,10,8.40
2012,03,17,18,11,8.40
2012,03,17,18,12,8.40
2012,03,17,18,14,8.30
2012,03,17,18,15,8.30
2012,03,17,18,16,8.30
2012,03,17,18,17,8.30
2012,03,17,18,19,8.30
2012,03,17,18,20,8.20
2012,03,17,18,21,8.10
2012,03,17,18,22,8.00
2012,03,17,18,24,8.00
2012,03,17,18,25,7.90
2012,03,17,18,26,7.90
2012,03,17,18,27,8.00
2012,03,17,18,28,8.00
2012,03,17,18,29,8.10
2012,03,17,18,30,8.10
2012,03,17,18,31,8.10
2012,03,17,18,32,8.10
2012,03,17,18,33,8.10
2012,03,17,18,34,8.10
2012,03,17,18,35,8.10
2012,03,17,18,36,8.00
2012,03,17,18,38,7.90
2012,03,17,18,39,7.90
2012,03,17,18,40,7.90
2012,03,17,18,41,7.80
2012,03,17,18,42,7.80
2012,03,17,18,43,7.80
2012,03,17,18,44,7.70
2012,03,17,18,45,7.70
2012,03,17,18,46,7.70
2012,03,17,18,47,7.70
2012,03,17,18,48,7.60
2012,03,17,18,49,7.60
2012,03,17,18,50,7.60
2012,03,17,18,51,7.60
2012,03,17,18,52,7.60
2012,03,17,18,54,7.50
2012,03,17,18,55,7.50
2012,03,17,18,56,7.50
2012,03,17,18,57,7.40
2012,03,17,18,59,7.40
2012,03,17,19,00,7.30
2012,03,17,19,01,7.30
2012,03,17,19,02,7.20
2012,03,17,19,04,7.20
2012,03,17,19,05,7.10
2012,03,17,19,06,7.10
2012,03,17,19,07,7.00
2012,03,17,19,09,6.90
2012,03,17,19,10,6.90
2012,03,17,19,11,6.80
2012,03,17,19,12,6.80
2012,03,17,19,13,6.80
2012,03,17,19,14,6.70
2012,03,17,19,15,6.70
2012,03,17,19,16,6.70
2012,03,17,19,17,6.60
2012,03,17,19,18,6.60
2012,03,17,19,19,6.60
2012,03,17,19,20,6.60
2012,03,17,19,21,6.50
2012,03,17,19,22,6.50
2012,03,17,19,23,6.50
2012,03,17,19,24,6.50
2012,03,17,19,25,6.40
2012,03,17,19,26,6.40
2012,03,17,19,27,6.40
2012,03,17,19,29,6.40
2012,03,17,19,30,6.30
2012,03,17,19,31,6.30
2012,03,17,19,32,6.30
2012,03,17,19,34,6.30
2012,03,17,19,35,6.20
2012,03,17,19,36,6.20
2012,03,17,19,37,6.20
2012,03,17,19,38,6.20
2012,03,17,19,39,6.10
2012,03,17,19,40,6.10
2012,03,17,19,41,6.10
2012,03,17,19,42,6.10
2012,03,17,19,43,6.10
2012,03,17,19,44,6.00
2012,03,17,19,45,6.00
2012,03,17,19,46,5.90
2012,03,17,19,47,5.90
2012,03,17,19,48,5.90
2012,03,17,19,49,5.90
2012,03,17,19,50,5.90
2012,03,17,19,51,5.80
2012,03,17,19,52,5.80
2012,03,17,19,54,5.80
2012,03,17,19,55,5.80
2012,03,17,19,56,5.70
2012,03,17,19,57,5.70
2012,03,17,19,59,5.70
2012,03,17,20,00,5.70
2012,03,17,20,01,5.60
2012,03,17,20,02,5.60
2012,03,17,20,03,5.60
2012,03,17,20,04,5.60
2012,03,17,20,05,5.60
2012,03,17,20,06,5.50
2012,03,17,20,07,5.50
2012,03,17,20,08,5.50
2012,03,17,20,09,5.40
2012,03,17,20,10,5.40
2012,03,17,20,11,5.40
2012,03,17,20,12,5.40
2012,03,17,20,13,5.40
2012,03,17,20,14,5.30
2012,03,17,20,15,5.30
2012,03,17,20,16,5.30
2012,03,17,20,17,5.30
2012,03,17,20,18,5.30
2012,03,17,20,19,5.30
2012,03,17,20,21,5.30
2012,03,17,20,22,5.20
2012,03,17,20,23,5.20
2012,03,17,20,24,5.20
2012,03,17,20,26,5.20
2012,03,17,20,27,5.10
2012,03,17,20,28,5.10
2012,03,17,20,29,5.10
2012,03,17,20,31,5.10
2012,03,17,20,32,5.00
2012,03,17,20,33,5.00
2012,03,17,20,34,4.90
2012,03,17,20,36,4.90
2012,03,17,20,37,4.90
2012,03,17,20,38,4.90
2012,03,17,20,39,4.80
2012,03,17,20,42,4.80
2012,03,17,20,43,4.80
2012,03,17,20,44,4.80
2012,03,17,20,47,4.80
2012,03,17,20,48,4.80
2012,03,17,20,49,4.80
2012,03,17,20,52,4.70
2012,03,17,20,53,4.70
2012,03,17,20,54,4.70
2012,03,17,20,57,4.70
2012,03,17,20,58,4.70
2012,03,17,20,59,4.70
2012,03,17,21,00,4.70
2012,03,17,21,02,4.70
2012,03,17,21,03,4.70
2012,03,17,21,04,4.60
2012,03,17,21,07,4.70
2012,03,17,21,08,4.70
2012,03,17,21,09,4.70
2012,03,17,21,12,4.70
2012,03,17,21,13,4.80
2012,03,17,21,14,4.80
2012,03,17,21,16,4.80
2012,03,17,21,17,4.80
2012,03,17,21,18,4.80
2012,03,17,21,19,4.80
2012,03,17,21,21,4.80
2012,03,17,21,22,4.80
2012,03,17,21,23,4.80
2012,03,17,21,24,4.80
2012,03,17,21,26,4.80
2012,03,17,21,27,4.80
2012,03,17,21,28,4.80
2012,03,17,21,29,4.80
2012,03,17,21,31,4.80
2012,03,17,21,32,4.80
2012,03,17,21,33,4.80
2012,03,17,21,34,4.80
2012,03,17,21,35,4.80
2012,03,17,21,37,4.80
2012,03,17,21,38,4.80
2012,03,17,21,39,4.80
2012,03,17,21,40,4.80
2012,03,17,21,42,4.70
2012,03,17,21,43,4.70
2012,03,17,21,44,4.70
2012,03,17,21,45,4.70
2012,03,17,21,47,4.70
2012,03,17,21,48,4.70
2012,03,17,21,49,4.70
2012,03,17,21,50,4.70
2012,03,17,21,51,4.70
2012,03,17,21,53,4.70
2012,03,17,21,54,4.70
2012,03,17,21,55,4.70
2012,03,17,21,56,4.70